Location: Ariel
(45.9570°N, 122.5700°W)
Time: 08:11:41
(UTC-07:00)

Altair - Pass Details

Date: 28 July 2019
Orbit: 1501 x 1683 km, 47.2° (Epoch: 22 August)

Event Time Altitude Azimuth Distance (km) Brightness Sun altitude
Rises 16:37:33 0° 291° (WNW) 4,638 10.6 40.8°
Reaches altitude 10° 16:40:36 10° 288° (WNW) 3,658 10.3 40.3°
Maximum altitude 16:49:32 59° 212° (SSW) 1,720 8.9 38.8°
Drops below altitude 10° 16:58:40 10° 136° (SE) 3,735 9.4 37.3°
Sets 17:01:50 0° 132° (SE) 4,741 9.8 36.7°
